Regional Weather Roundup
Issued by NWS

Home | Current Version | Previous Version | Graphics & Text | Print | Product List | Glossary On
Versions: 1 2 3 4 5 6 7 8 9 10 11 12 13 14 15 16 17 18 19 20 21 22 23 24 25 26 27 28 29 30 31 32 33 34 35 36 37 38 39 40 41 42 43 44 45 46 47 48 49 50
000
ASUS43 KMKX 201621
RWRWI

WISCONSIN REGIONAL WEATHER ROUNDUP
NATIONAL WEATHER SERVICE MILWAUKEE/SULLIVAN WI
1100 AM CDT FRI OCT 20 2017

NOTE: "FAIR" INDICATES FEW OR NO CLOUDS BELOW 12,000 FEET WITH NO
SIGNIFICANT WEATHER AND/OR OBSTRUCTIONS TO VISIBILITY.

WIZ001-002-006>008-014>016-023>028-201700-
NORTHWEST WISCONSIN

CITY           SKY/WX    TMP DP  RH WIND       PRES   REMARKS
SUPERIOR ARPT  SUNNY     67  51  55 S13       29.82F
ASHLAND        SUNNY     68  48  48 S10G20    29.88S
HAYWARD        SUNNY     65  48  54 S9        29.90F
SIREN          SUNNY     67  49  51 S14G20    29.88S
CUMBERLAND     SUNNY     64  48  55 S14G21    29.91F
RICE LAKE      SUNNY     65  49  56 S15       29.94S
CHETEK         SUNNY     65  52  62 S9        29.94F
LADYSMITH      SUNNY     66  51  58 S10G17    29.97S
EAU CLAIRE     SUNNY     67  51  56 S14       29.95F
MENOMONIE      SUNNY     68  51  55 S9        29.93F
NEW RICHMOND   SUNNY     68  49  50 S14G21    29.90S
OSCEOLA        SUNNY     66  50  57 S10G18    29.91F
$$

WIZ003>005-009-010-017-018-201700-
NORTH CENTRAL WISCONSIN

CITY           SKY/WX    TMP DP  RH WIND       PRES   REMARKS
MANITOWISH WTR SUNNY     62  48  59 S12G17    29.95F
ARBOR VITAE    SUNNY     65  49  57 S8        29.96F
WOODRUFF       SUNNY     65  49  57 S8        29.96F
RHINELANDER    SUNNY     65  50  58 S8        30.00F
EAGLE RIVER    SUNNY     65  47  51 SW7       29.98S
LAND O LAKES   SUNNY     65  48  52 S6        29.98F
PHILLIPS       SUNNY     66  50  57 S9        29.95F
TOMAHAWK       SUNNY     66  49  53 S5        29.99F
MEDFORD        SUNNY     64  50  61 S10       29.99F
MERRILL        SUNNY     67  51  55 SW7       30.00F
$$

WIZ029-030-035-036-043>047-201700-
CENTRAL WISCONSIN

CITY           SKY/WX    TMP DP  RH WIND       PRES   REMARKS
WAUSAU         SUNNY     64  50  60 S7        30.00F
MOSINEE        MOSUNNY   63  52  67 S10       30.03F
MARSHFIELD     SUNNY     65  50  58 SW10      30.01F
STEVENS POINT  SUNNY     64  50  61 S8        30.03F
WAUPACA        SUNNY     67  51  55 S12G17    30.05F
WAUTOMA        SUNNY     67  52  58 SW8       30.06F
WISC RAPIDS    SUNNY     65  53  65 SW8       30.04F
CAMP DOUGLAS   MOSUNNY   68  54  60 S6        30.03F
$$

WIZ011>013-019>022-031-037>040-048>050-201700-
NORTHEAST WISCONSIN

CITY           SKY/WX    TMP DP  RH WIND       PRES   REMARKS
ANTIGO         SUNNY     65  50  59 S8        30.02F
SHAWANO        SUNNY     68  51  52 SW7       30.03F
OCONTO         SUNNY     67  50  55 SW9       30.04S
STURGEON BAY   SUNNY     69  52  54 S10       30.05F
GREEN BAY      SUNNY     66  53  63 S8        30.05F
MANITOWOC      SUNNY     69  53  56 S8        30.07F
APPLETON       SUNNY     66  46  48 SW12G18   30.05F
CLINTONVILLE   SUNNY     66  48  52 SW12      30.04F
OSHKOSH        SUNNY     67  52  58 S15       30.06F
$$

WIZ032>034-041-042-053>061-201700-
SOUTHWEST WISCONSIN

CITY           SKY/WX    TMP DP  RH WIND       PRES   REMARKS
LA CROSSE      SUNNY     67  53  61 S9        30.00F
SPARTA         SUNNY     69  52  54 S9        30.02F
VIROQUA        SUNNY     67  53  60 SW12      30.05S
BOSCOBEL       SUNNY     70  51  51 SW9       30.07F
PRAIRIE DU CHI SUNNY     65  50  57 S6        30.06S
PLATTEVILLE    SUNNY     66  55  66 S13       30.10F
$$

WIZ056-057-062-063-064-067-068-201700-
SOUTH CENTRAL WISCONSIN

CITY           SKY/WX    TMP DP  RH WIND       PRES   REMARKS
REEDSBURG      CLOUDY    68  53  59 S9        30.06F
BARABOO/DELLS  CLOUDY    65  50  57 SW9       30.07F
LONE ROCK      SUNNY     67  55  65 S7        30.07F
MINERAL POINT  SUNNY     68  54  60 S13       30.09F
MADISON        CLOUDY    65  52  62 S9        30.09F
MIDDLETON      CLOUDY    70  53  54 S10       30.09F
WATERTOWN      CLOUDY    67  53  60 S10       30.11S
MONROE         CLOUDY    66  50  55 SW15      30.11F
JANESVILLE     SUNNY     70  52  52 SW12      30.12F
$$

WIZ051-052-058>065-066-070>072-201700-
SOUTHEAST WISCONSIN

CITY           SKY/WX    TMP DP  RH WIND       PRES   REMARKS
MILWAUKEE      MOSUNNY   70  52  52 SW9       30.13F
WAUKESHA       SUNNY     64  50  59 S10       30.13F
MILWAUKEE/TIMM SUNNY     70  48  46 S7        30.12F
RACINE         SUNNY     71  52  50 SW10      30.14F
BURLINGTON     CLOUDY    69  54  58 SW10      30.13F
KENOSHA        SUNNY     70  52  52 W10       30.14F
FOND DU LAC    SUNNY     68  49  50 SW10      30.08F
SHEBOYGAN      SUNNY     70  54  56 SW10      30.09F
WEST BEND      SUNNY     70  48  46 SW9       30.10S
JUNEAU         SUNNY     65  51  60 SW13      30.11F
$$

LSZ147-162-201700-
LAKE SUPERIOR

STATION/POSITION TIME  TEMP    WIND        PRES    WAVE
                       AIR SEA DIR/SP/G            HT/PER
                 (UTC) (F)     (DEG/KT/KT) (MB)    (FT/S)
W MID LAKE BUOY  1350   54 52              1011.8    1/ 4
DEVILS ISLAND    1400   59     180/  7/ 10 1011.4F
SAXON HARBOR     1440   64     200/ 10/ 16 1011.2F
$$

LMZ867-665-643>646-201700-
LAKE MICHIGAN

STATION/POSITION TIME  TEMP    WIND        PRES    WAVE
                       AIR SEA DIR/SP/G            HT/PER
                 (UTC) (F)     (DEG/KT/KT) (MB)    (FT/S)
S GREEN BAY BUOY 1430   58 58  210/ 12/ 14 1017.5S
N MID LAKE BUOY  1350   60 58  190/ 16/ 19 1018.4    4/ 6
NORTHPORT PIER   1440   61     160/  4/  8 1017.6S
KEWAUNEE LAKESHO 1418   53     190/  7/  8 1017.8
SHEBOYGAN LAKESH 1500   56     170/ 15/ 16 1019.3F
PORT WASHINGTON  1440   58     170/  6/  9 1020.7F
MILWAUKEE LAKESH 1420   62     220/  9/ 10   N/A
S MID LAKE BUOY  1350   62 61  180/ 14/ 16 1021.6    2/ 4
KENOSHA   LAKESH 1400   62     220/  8/ 11 1021.0
$$

TC  - TEMPERATURE IN CELSIUS
VSB - VISIBILITY IN STATUTE MILES
WCI - WIND CHILL INDEX
HX  - HEAT INDEX





USA.gov is the U.S. government's official web portal to all federal, state and local government web resources and services.